Погода в Гимрах

Россия / Республика Дагестан     42°45′29″N   46°50′28″E
темп.,
°C
ветер,
м/с
пор.,
м/с
влажн.,
%
обл.,
%
осадки,
мм/ч
давл.,
гПа
погр.,
м
29 июня, ср
ср2900:00+12з22815 0.9 101511
03:00+13юз228196 0.9 101414
06:00+14юз11775 1.2 101490
09:00+18всв21517 1.4 1014862
12:00+20всв324993 0.1 10131465
15:00+21св2252100 0.1 10131525
18:00+20ссв1160100 0.0 1013358
21:00+16ссз116597 0.1 101511
30 июня, чт
чт3000:00+14зсз116980 0.1 101510
03:00+13зюз22747 0.1 101510
06:00+15юз117112 0.0 101577
09:00+19в225822 0.0 1014917
12:00+21всв3256100 0.0 10121532
15:00+19всв336427 0.1 1012824
18:00+18св327034 0.1 1012445
21:00+13всв118566 0.9 101430
1 июля, пт
пт100:00+14зюз228756 0.2 101222
03:00+13зюз11893 0.2 101211
06:00+15ююз00849 0.1 1011120
09:00+18всв327775 0.7 1011727
12:00+17св337096 1.6 1011839
15:00+17св3266100 2.4 1011576
18:00+15св227496 0.7 1012191
21:00+12св2288100 1.4 1014112
2 июля, сб
сб200:00+11з1195100 6.9 1014102
03:00+12з1292100 9.2 101489
06:00+12зсз1189100 0.7 101494
09:00+11ссз1290100 2.4 1015220
12:00+13ссз1277100 0.4 1016556
15:00+15зюз026597 0.5 1016843
18:00+13сз227899 0.5 1017180
21:00+11зсз228127 0.7 101819
3 июля, вс
вс300:00+9з22825 0.0 101912
03:00+8з22854 0.0 101915
06:00+11з11782 0.0 101995
09:00+15св226021 0.0 10191120
12:00+16всв2255100 0.1 10181302
15:00+16с025383 0.1 10181202
18:00+15всв21583 0.0 1018662
21:00+10сз00821 0.0 102110